This is the latest recevied weather packets stored in our database for station/object KE0LFX. If no packets are shown the sender has not sent any weather packets the latest 10 day(s).
| Time | Temp. | Humidity | Pressure | Rain* | Wind** | Luminosity | Snow |
|---|---|---|---|---|---|---|---|
| 1777936654 | 22.78° C | 34% | 1004.2 hPa | 0 mm | - | 157 W/m² | - |
| 1777936351 | 23.33° C | 34% | 1003.9 hPa | 0 mm | - | 170 W/m² | - |
| 1777936046 | 23.89° C | 34% | 1003.9 hPa | 0 mm | - | 186 W/m² | - |
| 1777935745 | 23.89° C | 34% | 1003.5 hPa | 0 mm | - | 192 W/m² | - |
| 1777935444 | 24.44° C | 33% | 1003.7 hPa | 0 mm | - | 193 W/m² | - |
| 1777935139 | 24.44° C | 34% | 1003.7 hPa | 0 mm | - | 230 W/m² | - |
| 1777934837 | 25° C | 34% | 1003.6 hPa | 0 mm | - | 246 W/m² | - |
| 1777934534 | 25° C | 34% | 1003.6 hPa | 0 mm | - | 262 W/m² | - |
| 1777934230 | 25° C | 35% | 1003.3 hPa | 0 mm | - | 259 W/m² | - |
| 1777933926 | 25° C | 35% | 1003.3 hPa | 0 mm | - | 262 W/m² | - |
| 1777933623 | 25° C | 35% | 1003.2 hPa | 0 mm | - | 297 W/m² | - |
| 1777933320 | 25.56° C | 36% | 1003 hPa | 0 mm | - | 314 W/m² | - |
| 1777933017 | 25° C | 37% | 1002.9 hPa | 0 mm | - | 325 W/m² | - |
| 1777932714 | 25.56° C | 36% | 1002.9 hPa | 0 mm | - | 344 W/m² | - |
| 1777932410 | 26.11° C | 38% | 1002.8 hPa | 0 mm | - | 371 W/m² | - |
| 1777932108 | 26.67° C | 37% | 1002.7 hPa | 0 mm | - | 392 W/m² | - |
| 1777931804 | 26.67° C | 38% | 1002.4 hPa | 0 mm | - | 382 W/m² | - |
| 1777931502 | 26.67° C | 36% | 1002.5 hPa | 0 mm | - | 398 W/m² | - |
| 1777931197 | 26.67° C | 36% | 1002.5 hPa | 0 mm | - | 433 W/m² | - |
| 1777930894 | 26.67° C | 36% | 1002.5 hPa | 0 mm | - | 238 W/m² | - |
| 1777930591 | 27.22° C | 36% | 1002.4 hPa | 0 mm | - | 108 W/m² | - |
| 1777930287 | 27.22° C | 32% | 1002.2 hPa | 0 mm | - | 483 W/m² | - |
| 1777929984 | 27.78° C | 30% | 1002.3 hPa | 0 mm | - | 82 W/m² | - |
| 1777929681 | 27.78° C | 30% | 1002.3 hPa | 0 mm | - | 494 W/m² | - |
| 1777929378 | 27.78° C | 30% | 1002.4 hPa | 0 mm | - | 482 W/m² | - |
* Rain latest hour (hover to see other rain measurements)
** Current wind speed in m/s (hover to see current wind gust speed)